Regional Weather Roundup
Issued by NWS

Home | Current Version | Previous Version | Text Only | Print | Product List | Glossary Off
Versions: 1 2 3 4 5 6 7 8 9 10 11 12 13 14 15 16 17 18 19 20 21 22 23 24 25 26 27 28 29 30 31 32 33 34 35 36 37 38 39 40 41 42 43 44 45 46 47 48 49 50

000
ASUS43 KLOT 230310
RWRIL

ILLINOIS REGIONAL WEATHER ROUNDUP
NATIONAL WEATHER SERVICE CHICAGO/ROMEOVILLE IL
1000 PM CDT FRI AUG 22 2014

NOTE: "FAIR" INDICATES FEW OR NO CLOUDS BELOW 12,000 FEET WITH NO
SIGNIFICANT WEATHER AND/OR OBSTRUCTIONS TO VISIBILITY.

* THESE STATIONS ARE NOT UNDER NWS QUALITY CONTROL. THEY ALSO MAY NOT
  REPORT WEATHER SUCH AS PRECIPITATION OR FOG.

ILZ001-002-007-009-015-016-024-230400-
NORTHWEST ILLINOIS

CITY           SKY/WX    TMP DP  RH WIND       PRES   REMARKS
MOLINE         CLEAR     74  72  93 SE3       29.96S
STERLING*      MOCLDY    77  73  88 CALM      29.97S
SAVANNA*       CLOUDY    80  76  87 CALM      29.97R HX  84
$$

ILZ003-004-008-010-011-017-018-230400-
NORTH CENTRAL ILLINOIS

CITY           SKY/WX    TMP DP  RH WIND       PRES   REMARKS
ROCKFORD       PTCLDY    76  73  91 CALM      29.99R
FREEPORT*      CLEAR     75  73  96 CALM      30.00S FOG
ROCHELLE*      MOCLDY    74  72  95 CALM      29.99R FOG
DE KALB*       MOCLDY    73  71  94 CALM      30.00R
PERU*          MOCLDY    77  74  90 S3        29.99R
$$

ILZ005-006-012>014-019>023-230400-
NORTHEAST ILLINOIS

CITY           SKY/WX    TMP DP  RH WIND       PRES   REMARKS
CHICAGO-OHARE  MOCLDY    79  70  74 CALM      29.98R HX  82
CHICAGO-MIDWAY MOCLDY    82  75  79 S3        29.98R HX  89
AURORA         PTCLDY    75  71  87 CALM      29.99R
LANSING*       PTCLDY    73  71  94 CALM      29.99R
JOLIET*        PTCLDY    75  72  91 CALM      29.99R
WAUKEGAN       CLOUDY    73  71  93 CALM      29.99R FOG
DUPAGE AIRPORT CLOUDY    77  73  87 CALM      29.99R
KANKAKEE*      CLEAR     72  71  98 CALM      30.00S
WHEELING       PTCLDY    77  73  87 CALM      30.00R
MORRIS*        PTCLDY    75  75 100 S3        29.98S
ROMEOVILLE*    PTCLDY    74  73  95 S3        29.99R
NORTHERLY ISL    N/A     74  71  91 CALM        N/A
$$

LMZ740>746-230400-
SOUTHERN LAKE MICHIGAN

STATION/POSITION SKY/WX   TEMP    WIND        PRES    VSBY  WAVE
                          AIR SEA DIR/SP/G                  HT/PER
                          (F)     (DEG/KT/KT) (MB)    (MI)  (FT/S)
SOUTHERN BUOY              71 71   40/  8/ 10 1015.4R         0
WAUKEGAN HARBOR            73      40/  2/  4   N/A
HARRISON CRIB              75      80/  4/  4   N/A
BURNHAM HARBOR             74      CALM  /  5   N/A
CALUMET HARBOR             79     220/  2/  3 1014.2R
MICHIGAN CITY              77      20/  1/  3   N/A
MICHIGAN CITY 6N           76 74   70/  4/  6   N/A           0
ST. JOSEPH                 74 72   40/  4/  4   N/A           0
$$

ILZ025>027-034>036-040-047-049-050-058-095>099-230400-
WEST-CENTRAL ILLINOIS

CITY           SKY/WX    TMP DP  RH WIND       PRES   REMARKS
QUINCY         CLEAR     79  76  90 E7        29.96R HX  83
GALESBURG*     PTCLDY    77  75  94 CALM      29.98R
MACOMB*        PTCLDY    76  75  99 CALM      29.99R FOG
JACKSONVILLE*  PTCLDY    80  78  94 E3        29.98R HX  85
PITTSFIELD*    PTCLDY    80  76  89 NE3       29.97R HX  85
$$

ILZ028>032-037-038-041>044-048-051>054-059>061-230400-
CENTRAL ILLINOIS

CITY           SKY/WX    TMP DP  RH WIND       PRES   REMARKS
PONTIAC        PTCLDY    75  75 100 SE3       29.99S
DECATUR        MOCLDY    79  76  90 SE3       29.99S HX  83
PEORIA         PTCLDY    79  74  84 E3        29.98R HX  82
LACON*         PTCLDY    77  74  89 E6        29.97S
LINCOLN*       PTCLDY    78  76  91 CALM      29.95R HX  82
SPRINGFIELD    PTCLDY    79  77  94 CALM      29.97R HX  83
TAYLORVILLE    CLEAR     77  75  94 SE3       29.98R
$$

ILZ033-039-045-046-055>057-062-063-230400-
EAST-CENTRAL ILLINOIS

CITY           SKY/WX    TMP DP  RH WIND       PRES   REMARKS
CHAMPAIGN      CLEAR     75  73  93 E6        30.01R
DANVILLE*      HVY RAIN  71  70  98 CALM      29.98S
RANTOUL*       CLEAR     75  71  87 CALM      30.01S
MATTOON        PTCLDY    78  76  93 CALM      29.99R HX  81
PARIS*         PTCLDY    74  74  99 CALM      30.01R FOG
$$

ILZ079-100>102-230400-
SOUTHWEST ILLINOIS

CITY           SKY/WX    TMP DP  RH WIND       PRES   REMARKS
BELLEVILLE     PTCLDY    81  81 100 E3        29.94R HX  91
CAHOKIA*       PTCLDY    81  79  94 E3        29.94R HX  90
SPARTA*        MOCLDY    80  76  87 SE3       29.97R HX  86
$$

ILZ064>066-069>071-074>076-080>082-084>086-088>090-092>094-230400-
SOUTH-CENTRAL ILLINOIS

CITY           SKY/WX    TMP DP  RH WIND       PRES   REMARKS
CARBONDALE     MOCLDY    81  76  84 SE5       29.96R HX  87
CAIRO*         PTCLDY    82  76  82 SE3       29.97R HX  90
MARION         MOCLDY    82  77  83 CALM      29.98R HX  91
MT. VERNON     PTCLDY    79  73  83 CALM      29.98S HX  82
CENTRALIA*     PTCLDY    77  74  91 SE5       29.97S
SALEM*         CLEAR     82  80  91 E3        29.98R HX  94
METROPOLIS*    CLOUDY    80  75  84 CALM      29.98R HX  84
$$

ILZ067-068-072-073-078-083-087-091-230400-
SOUTHEAST ILLINOIS

CITY           SKY/WX    TMP DP  RH WIND       PRES   REMARKS
LAWRENCEVILLE  CLOUDY    79  77  94 E5        29.99S HX  83
FLORA*         MOCLDY    79  77  94 E5        29.99R FOG     HX  84
FAIRFIELD*     PTCLDY    81  79  94 CALM      29.99R FOG     HX  89
HARRISBURG*    MOCLDY    79  78  97 CALM      29.99R HX  83
ROBINSON*      MOCLDY    80  78  95 CALM      30.00R FOG     HX  85
CARMI*         MOCLDY    81  79  94 CALM      29.97R FOG     HX  89
$$

ABBREVIATIONS USED IN REMARKS
   TC - TEMPERATURE IN CELSIUS
  WCI - WIND CHILL INDEX
   HX - HEAT INDEX
  VSB - VISIBILITY
$$




USA.gov is the U.S. government's official web portal to all federal, state and local government web resources and services.